GEFSNGP_con_prob3kmehi_204.txt.gz
EHI
0 0 1 1 0 0 0 0 1 3 8 17 25 33 44 55 57 57 59 60 58 54 52 50 46 41 39 39 39 38 36 31 26 22 20 20 19 19 18 16 13 11 11 11
0 1 2 2 1 1 1 1 2 4 9 17 26 34 45 55 58 56 56 57 55 49 46 45 44 42 41 40 38 36 32 28 24 23 22 21 18 17 16 15 13 11 9 9
0 1 2 2 2 3 4 4 5 8 14 22 30 37 44 51 53 54 54 53 49 42 37 38 41 43 42 39 36 32 29 26 25 25 25 22 18 15 14 14 13 10 7 7
0 0 1 1 2 5 9 11 13 18 26 33 39 44 46 48 49 50 51 49 44 37 32 34 38 41 39 35 31 30 29 28 26 25 25 21 17 14 13 12 11 8 7 6
0 0 0 2 5 9 14 18 21 26 35 43 49 51 51 48 47 49 50 47 43 38 33 32 35 36 34 30 27 27 28 27 25 23 22 18 15 13 11 10 9 7 6 6
0 0 1 6 11 14 15 19 23 27 36 44 49 50 48 45 46 49 49 45 41 38 34 30 30 31 30 27 24 23 23 22 20 19 17 14 12 10 8 8 8 7 6 6
0 0 3 9 15 15 14 16 22 27 34 41 44 44 44 42 44 46 44 40 37 35 31 28 27 26 25 22 18 16 16 16 14 14 13 11 9 7 7 6 6 5 5 6
0 1 4 8 13 16 16 19 24 29 36 43 45 45 44 43 41 40 38 35 33 31 27 25 24 21 18 15 11 9 10 11 10 9 8 7 6 6 6 5 4 4 4 4
1 3 5 8 13 17 20 24 27 31 37 43 43 41 40 38 36 35 34 33 31 27 22 20 18 14 11 9 7 6 5 6 6 5 5 4 5 5 4 4 3 3 3 3
3 4 8 11 15 20 22 25 27 29 34 37 34 31 31 31 30 29 29 28 26 21 15 13 12 10 8 6 4 3 2 2 2 3 3 3 3 3 3 3 3 3 3 3
2 4 8 12 15 18 19 22 24 26 29 29 26 24 25 24 22 20 20 20 19 15 11 8 8 6 4 3 1 1 1 0 1 2 2 2 1 1 1 2 2 3 3 3
1 2 6 9 11 13 14 17 21 24 24 22 20 20 20 17 14 12 13 13 12 10 8 7 5 3 1 1 0 0 0 0 0 1 1 1 0 0 0 1 1 1 2 2
1 2 5 8 9 9 11 14 18 19 18 17 16 15 13 11 8 7 8 8 7 6 6 6 4 2 0 0 0 0 0 0 0 0 0 0 0 0 0 0 0 0 1 1
2 3 5 6 6 8 10 14 16 16 15 14 14 13 10 8 6 5 6 6 4 3 4 5 4 2 1 0 0 0 0 0 0 0 0 0 0 0 0 0 0 0 0 0
2 2 2 3 4 6 10 13 15 15 12 11 11 10 8 6 4 5 6 5 4 3 3 3 3 3 2 1 0 0 0 0 0 0 0 0 0 0 0 0 0 0 0 0
1 0 0 1 3 5 8 11 13 11 9 8 7 6 5 4 4 5 5 4 3 2 1 1 1 2 3 2 1 0 0 0 0 0 0 0 0 0 0 0 0 0 0 0
0 0 0 1 2 4 5 8 8 7 5 4 4 3 3 3 3 4 4 2 1 1 0 0 0 1 2 2 1 0 0 0 0 0 0 0 0 0 0 0 0 0 0 0
0 0 0 1 2 3 4 4 4 4 4 3 3 3 3 3 3 3 2 1 0 0 0 0 0 1 1 1 0 0 0 0 0 0 0 0 0 0 0 0 0 0 0 0
0 0 0 0 1 3 3 3 4 3 3 3 3 3 3 3 2 2 1 0 0 0 0 0 0 0 0 0 0 0 0 0 0 0 0 0 0 0 0 0 0 0 0 0
0 0 0 0 1 3 3 4 4 4 3 3 3 3 2 1 1 1 0 0 0 0 0 0 0 0 0 0 0 0 0 0 0 0 0 0 0 0 0 0 0 0 0 0
0 0 0 0 1 2 2 3 3 3 2 2 2 1 1 0 0 0 0 0 0 0 0 0 0 0 0 0 0 0 0 0 0 0 0 0 0 0 0 0 0 0 0 0
0 0 0 0 1 1 1 1 1 1 1 1 1 0 0 0 0 0 0 0 0 0 0 0 0 0 0 0 0 0 0 0 0 0 0 0 0 0 0 0 0 0 0 0
0 0 0 0 0 0 0 0 0 0 0 0 0 0 0 0 0 0 0 0 0 0 0 0 0 0 0 0 0 0 0 0 0 0 0 0 0 0 0 0 0 0 0 0
0 0 0 0 0 0 0 0 0 0 0 0 0 0 0 0 0 0 0 0 0 0 0 0 0 0 0 0 0 0 0 0 0 0 0 0 0 0 0 0 0 0 0 0
0 0 0 0 0 0 0 0 0 0 0 0 0 0 0 0 0 0 0 0 0 0 0 0 0 0 0 0 0 0 0 0 0 0 0 0 0 0 0 0 0 0 0 0
0 0 0 0 0 0 0 0 0 0 0 0 0 0 0 0 0 0 0 0 0 0 0 0 0 0 0 0 0 0 0 0 0 0 0 0 0 0 0 0 0 0 0 0
0 0 0 0 0 0 0 0 0 0 0 0 0 0 0 0 0 0 0 0 0 0 0 0 0 0 0 0 0 0 0 0 0 0 0 0 0 0 0 0 0 0 0 0

GEFSNGP_con_prob3kmehi_210.txt.gz
EHI
0 0 0 0 0 0 0 0 0 1 1 3 7 14 22 26 24 22 19 20 22 25 26 25 22 20 18 17 18 23 25 24 23 23 22 19 15 13 11 9 6 4 3 3
0 0 0 0 0 0 0 0 0 1 1 5 11 18 23 26 27 25 23 22 23 25 26 25 21 17 14 15 17 22 24 22 21 22 22 19 15 13 11 8 6 4 4 4
0 0 0 0 0 0 0 0 0 0 2 8 16 21 24 27 29 29 28 28 26 24 23 22 19 14 14 15 18 20 21 21 20 21 22 20 15 13 12 10 8 6 5 5
0 0 0 0 0 0 0 0 0 1 6 15 23 26 26 26 28 31 33 31 28 22 20 20 18 16 17 19 20 21 21 21 20 21 22 20 16 13 12 11 10 9 7 6
0 0 0 0 0 0 1 1 1 4 12 22 29 30 28 27 30 33 33 31 27 22 20 21 19 17 19 19 18 19 20 20 19 18 18 16 13 10 10 11 11 10 8 6
0 0 0 0 1 1 1 1 2 8 17 26 28 26 27 31 33 32 29 28 26 22 23 24 21 18 17 16 15 15 17 17 16 14 12 9 6 4 5 7 9 9 7 6
0 0 0 1 2 2 1 2 5 11 19 26 25 21 25 33 34 30 27 26 25 23 21 20 19 18 15 13 13 14 14 14 12 10 7 4 2 1 3 5 8 9 7 6
0 0 0 1 3 4 3 5 10 14 22 27 25 23 27 32 31 29 28 26 24 22 17 14 14 14 12 11 12 13 13 11 8 6 4 1 1 1 3 5 7 8 7 5
1 2 3 3 4 4 5 9 13 18 23 26 26 27 29 31 30 28 28 26 22 18 15 11 8 7 6 6 8 10 10 8 5 3 1 0 0 1 2 3 4 5 5 4
2 5 7 7 5 5 7 10 15 19 20 21 22 24 26 28 28 28 25 20 17 14 13 9 5 3 3 3 5 7 7 5 2 1 0 0 0 0 1 1 1 2 1 1
2 4 7 8 6 6 8 11 15 17 17 17 17 19 21 23 25 24 20 15 12 10 9 6 4 3 2 2 2 3 2 1 0 0 0 0 0 0 0 0 0 0 0 0
1 2 5 6 7 7 9 12 15 16 17 16 15 16 17 18 17 16 14 11 8 6 5 4 3 3 3 2 1 0 0 0 0 0 0 0 0 0 0 0 0 0 0 0
0 1 3 4 6 8 10 12 14 14 14 13 12 12 12 11 10 9 9 7 5 4 3 3 3 3 3 2 1 0 0 0 0 0 0 0 0 0 0 0 0 0 0 0
0 1 2 3 4 6 9 12 12 11 8 7 6 7 8 7 6 5 5 5 4 3 3 3 3 3 2 1 0 0 0 0 0 0 0 0 0 0 0 0 0 0 0 0
0 0 1 1 1 3 6 9 9 8 6 5 4 5 6 5 4 4 4 4 3 3 3 3 3 2 1 0 0 0 0 0 0 0 0 0 0 0 0 0 0 0 0 0
1 0 0 0 0 2 4 5 5 6 7 7 6 5 5 4 3 3 3 3 3 3 3 3 2 1 0 0 0 0 0 0 0 0 0 0 0 0 0 0 0 0 0 0
1 0 0 0 1 2 3 3 3 4 6 6 5 4 4 3 3 3 3 3 3 3 2 1 1 0 0 0 0 0 0 0 0 0 0 0 0 0 0 0 0 0 0 0
1 0 0 0 1 2 2 2 3 4 4 4 4 3 3 3 3 3 3 3 3 3 1 0 0 0 0 0 0 0 0 0 0 0 0 0 0 0 0 0 0 0 0 0
0 0 0 0 0 1 1 1 2 3 3 3 3 3 3 3 3 3 3 3 3 2 1 0 0 0 0 0 0 0 0 0 0 0 0 0 0 0 0 0 0 0 0 0
0 0 0 0 0 0 0 0 1 2 3 3 3 3 3 3 3 3 3 3 3 2 1 0 0 0 0 0 0 0 0 0 0 0 0 0 0 0 0 0 0 0 0 0
0 0 0 0 0 0 0 0 1 3 3 3 3 3 3 3 3 3 2 2 1 1 0 0 0 0 0 0 0 0 0 0 0 0 0 0 0 0 0 0 0 0 0 0
0 0 0 0 0 0 0 1 2 3 3 3 2 2 2 2 2 1 1 1 0 0 0 0 0 0 0 0 0 0 0 0 0 0 0 0 0 0 0 0 0 0 0 0
0 0 0 0 0 0 1 1 2 2 2 1 1 1 1 1 1 0 0 0 0 0 0 0 0 0 0 0 0 0 0 0 0 0 0 0 0 0 0 0 0 0 0 0
0 0 0 0 0 1 1 1 1 1 1 0 0 0 0 0 0 0 0 0 0 0 0 0 0 0 0 0 0 0 0 0 0 0 0 0 0 0 0 0 0 0 0 0
0 0 0 0 0 0 0 0 0 0 0 0 0 0 0 0 0 0 0 0 0 0 0 0 0 0 0 0 0 0 0 0 0 0 0 0 0 0 0 0 0 0 0 0
0 0 0 0 0 0 0 0 0 0 0 0 0 0 0 0 0 0 0 0 0 0 0 0 0 0 0 0 0 0 0 0 0 0 0 0 0 0 0 0 0 0 0 0
0 0 0 0 0 0 0 0 0 0 0 0 0 0 0 0 0 0 0 0 0 0 0 0 0 0 0 0 0 0 0 0 0 0 0 0 0 0 0 0 0 0 0 0

GEFSNGP_con_prob3kmehi_216.txt.gz
EHI
0 0 0 0 0 0 0 0 0 0 2 5 10 15 20 27 33 36 39 45 49 52 52 45 38 35 34 33 32 30 29 29 31 30 31 31 27 22 21 22 23 22 22 22
0 0 0 0 0 0 0 0 0 1 3 8 12 15 20 27 34 37 40 48 53 56 53 43 34 31 32 34 34 33 31 32 33 31 29 28 25 21 21 22 22 22 21 21
0 0 0 0 0 0 0 0 0 2 6 12 15 16 20 27 33 36 40 48 55 56 52 41 33 32 34 37 37 36 34 35 34 30 28 27 24 22 22 22 22 21 20 19
0 0 0 0 1 0 0 0 1 5 11 16 18 19 22 27 30 33 39 47 53 53 49 43 39 38 38 38 38 38 36 35 32 30 29 28 25 21 20 20 19 18 17 16
0 0 0 0 0 0 0 1 4 10 16 17 17 19 24 29 33 38 45 51 53 51 48 45 44 42 39 37 37 36 33 30 28 27 28 25 21 17 16 16 15 13 12 12
0 0 0 0 0 0 0 2 7 14 19 18 17 19 28 38 45 50 54 55 54 51 48 46 46 43 40 36 33 30 27 24 23 23 22 19 16 14 12 11 10 9 8 7
0 0 0 0 1 3 5 9 15 20 22 23 24 28 38 49 55 57 57 55 53 52 51 49 47 43 39 34 29 25 22 20 19 19 16 14 13 12 11 8 7 6 4 3
0 1 3 5 8 12 18 24 30 31 29 29 34 40 47 53 57 57 53 50 49 51 52 49 44 40 36 31 25 21 20 19 19 16 13 10 10 10 8 6 4 4 3 3
3 5 9 15 20 25 31 38 40 37 32 32 38 46 50 51 53 53 49 45 44 47 48 43 36 31 29 27 23 20 20 19 17 13 9 8 8 7 6 4 3 3 3 3
11 12 16 23 30 35 38 40 39 34 31 31 38 47 50 48 46 46 44 41 39 41 40 34 27 23 22 22 22 21 19 16 11 8 6 5 5 4 3 3 2 3 3 3
19 19 21 25 31 35 36 34 32 29 28 29 36 45 46 42 38 36 36 35 33 33 31 27 22 18 17 17 19 19 16 11 6 4 4 3 2 1 1 1 1 1 2 2
19 22 23 24 26 30 31 29 26 25 27 30 36 39 37 33 29 28 27 27 27 26 25 23 20 16 14 13 13 12 10 6 4 3 3 2 1 0 0 0 0 0 1 1
13 17 20 20 21 25 28 27 23 24 28 32 32 31 28 24 23 23 22 22 22 20 19 18 16 13 11 8 7 6 5 3 3 3 2 1 0 0 0 0 0 0 0 0
8 11 14 15 16 19 23 24 22 21 24 27 25 23 22 20 20 21 19 18 17 15 12 10 10 9 7 6 5 4 3 2 1 2 1 0 0 0 0 0 0 0 0 0
7 9 11 11 11 11 14 17 17 16 17 19 19 18 17 16 16 16 15 14 13 11 9 7 5 4 4 5 5 5 4 1 0 0 0 0 0 0 0 0 0 0 0 0
9 10 10 9 8 7 7 10 11 11 13 15 15 14 13 12 11 10 9 9 9 9 9 7 5 3 3 4 4 4 3 1 0 0 0 0 0 0 0 0 0 0 0 0
9 9 9 8 7 6 5 6 7 8 10 12 12 11 11 10 9 8 7 7 8 9 8 6 5 4 3 3 3 2 1 0 0 0 0 0 0 0 0 0 0 0 0 0
6 7 7 7 7 7 5 5 6 6 7 7 8 9 9 8 7 7 7 7 8 8 5 4 3 3 3 3 3 2 0 0 0 0 0 0 0 0 0 0 0 0 0 0
3 4 5 6 7 8 7 5 5 5 4 4 4 5 6 5 5 6 6 6 6 5 3 1 2 3 3 3 2 2 1 0 0 0 0 0 0 0 0 0 0 0 0 0
1 1 2 3 5 6 6 5 4 4 3 2 1 2 3 4 5 6 5 4 4 3 1 1 2 3 3 1 1 1 1 0 0 0 0 0 0 0 0 0 0 0 0 0
0 0 0 1 2 3 4 4 2 1 1 1 0 0 1 3 6 6 4 3 3 2 1 1 2 3 2 1 0 0 0 0 0 0 0 0 0 0 0 0 0 0 0 0
0 0 0 0 0 1 2 1 0 0 0 0 0 0 1 3 5 5 4 3 2 2 2 2 2 1 1 0 0 0 0 0 0 0 0 0 0 0 0 0 0 0 0 0
0 0 0 0 0 0 0 0 0 0 0 0 0 1 2 3 4 4 3 2 1 1 2 2 1 0 0 0 0 0 0 0 0 0 0 0 0 0 0 0 0 0 0 0
0 0 0 0 0 0 0 0 0 0 0 0 1 1 3 3 3 3 2 1 0 0 1 1 0 0 0 0 0 0 0 0 0 0 0 0 0 0 0 0 0 0 0 0
0 0 0 0 0 0 0 0 0 0 1 1 2 3 3 3 3 2 1 0 0 0 0 0 0 0 0 0 0 0 0 0 0 0 0 0 0 0 0 0 0 0 0 0
0 0 0 0 0 0 0 0 0 1 2 2 2 2 2 2 2 1 0 0 0 0 0 0 0 0 0 0 0 0 0 0 0 0 0 0 0 0 0 0 0 0 0 0
0 0 0 0 0 0 0 0 1 2 3 3 2 1 1 1 1 0 0 0 0 0 0 0 0 0 0 0 0 0 0 0 0 0 0 0 0 0 0 0 0 0 0 0

GEFSNGP_con_prob3kmehi_222.txt.gz
EHI
0 0 0 0 0 0 0 0 1 3 6 11 18 25 33 39 42 46 54 64 70 71 73 73 71 68 63 57 51 46 43 42 39 35 32 32 34 35 35 35 34 32 29 27
0 0 0 0 0 0 0 0 1 5 8 14 20 26 33 39 43 47 53 61 68 72 74 72 68 66 64 58 49 43 41 40 37 34 33 33 33 33 32 31 30 29 26 24
0 0 0 0 0 0 0 1 3 6 11 16 22 29 34 36 39 44 50 58 66 71 72 69 65 63 63 58 48 40 37 36 35 35 36 36 35 33 31 29 28 26 23 20
0 0 0 0 0 0 1 2 4 7 12 16 23 29 34 36 37 41 48 56 64 69 69 66 64 61 59 55 47 40 37 35 35 36 37 37 35 33 32 30 28 25 20 16
0 0 0 0 0 0 2 4 7 11 14 17 21 28 36 42 44 46 51 57 62 66 66 64 62 59 55 50 45 40 36 34 34 33 33 33 31 30 29 29 26 20 15 12
0 0 0 0 0 0 2 7 12 18 21 23 25 33 44 53 55 57 60 62 64 64 64 63 61 57 52 48 43 37 31 29 29 28 27 27 25 23 22 21 19 15 11 9
0 0 1 1 1 4 12 21 23 25 31 36 40 47 57 63 64 66 67 67 65 65 64 61 58 54 51 48 42 35 29 27 25 24 23 23 21 18 15 14 13 11 8 7
1 3 6 11 14 21 35 41 36 34 40 48 53 59 65 68 68 69 69 66 65 65 63 60 56 52 49 45 40 34 30 27 23 21 21 19 18 15 12 11 9 8 6 5
7 11 18 26 35 44 50 51 45 42 45 50 53 60 66 67 67 67 65 63 62 61 59 56 53 49 44 40 36 32 29 24 21 18 17 15 13 11 10 9 6 5 4 4
20 24 28 34 41 48 50 49 46 44 43 43 49 60 64 63 61 60 60 60 58 57 55 52 48 44 39 36 34 31 26 21 17 15 11 9 7 6 5 5 4 3 2 2
30 32 35 35 35 39 44 44 43 41 39 40 49 59 61 56 54 54 53 52 53 53 52 49 45 40 36 33 31 29 24 19 14 11 7 3 2 1 1 1 1 1 1 1
33 36 41 39 33 34 38 38 38 37 37 41 50 55 54 49 46 45 43 44 46 47 46 44 41 38 33 30 27 24 19 15 12 8 4 1 0 0 0 0 0 0 0 0
38 40 42 39 34 34 35 35 36 36 37 43 49 49 45 40 35 34 36 37 37 36 34 35 35 33 29 25 22 17 13 11 9 7 4 2 1 1 0 0 0 0 0 0
39 39 38 35 35 36 36 36 35 36 41 46 45 40 35 30 28 28 31 32 29 27 25 25 26 25 22 18 15 12 9 8 7 6 4 3 2 1 0 0 0 0 0 0
31 31 30 29 31 33 35 35 34 37 42 43 37 30 25 23 23 24 25 25 22 20 18 16 18 19 17 13 11 9 7 6 5 4 2 1 1 1 0 0 0 0 0 0
23 22 22 23 23 24 25 27 30 32 34 32 28 25 21 19 18 19 19 19 17 14 13 13 15 16 14 12 11 8 6 5 3 2 1 0 0 1 0 0 0 0 0 0
15 15 16 17 15 15 17 21 23 25 25 24 24 23 21 18 17 16 16 15 13 11 10 12 13 13 12 11 10 8 6 5 3 1 0 0 0 0 0 0 0 0 0 0
9 9 10 10 10 11 16 19 20 21 22 22 22 23 22 19 17 16 14 12 10 8 8 8 9 9 9 9 8 7 6 5 3 1 0 0 0 0 0 0 0 0 0 0
8 7 7 7 8 11 15 19 19 20 20 20 20 21 20 18 16 14 10 8 7 7 6 5 5 6 7 7 7 7 5 3 1 1 0 0 0 0 0 0 0 0 0 0
9 8 7 8 10 12 14 16 16 15 15 15 15 15 14 13 12 10 6 5 6 6 5 4 5 6 7 6 5 4 3 1 1 0 0 0 0 0 0 0 0 0 0 0
6 7 8 9 11 14 15 14 14 12 10 10 9 8 7 7 6 5 4 4 5 6 5 3 4 6 6 4 3 2 2 1 1 0 0 0 0 0 0 0 0 0 0 0
2 4 7 10 13 14 14 13 12 10 7 5 4 3 3 3 3 3 4 4 5 6 4 3 3 4 4 3 2 2 2 2 1 0 0 0 0 0 0 0 0 0 0 0
1 2 5 10 13 12 11 11 9 7 5 3 2 2 3 3 3 3 3 3 4 4 3 2 1 1 2 2 2 2 3 2 1 0 0 0 0 0 0 0 0 0 0 0
1 2 4 8 11 9 7 7 7 5 3 3 3 4 4 3 3 3 2 2 2 1 1 1 0 0 0 1 2 3 3 2 1 0 0 0 0 0 0 0 0 0 0 0
2 3 4 5 6 5 4 5 4 3 2 2 3 4 4 3 2 3 3 2 1 0 0 0 0 0 1 2 2 2 1 1 0 0 0 0 0 0 0 0 0 0 0 0
2 3 4 4 3 3 3 3 3 2 1 2 2 3 2 2 2 3 3 2 1 0 1 1 0 0 1 1 1 1 0 0 0 0 0 0 0 0 0 0 0 0 0 0
3 3 4 4 4 3 3 3 3 3 2 3 3 2 1 2 3 3 2 1 0 1 2 2 1 0 0 1 0 0 0 0 0 0 0 0 0 0 0 0 0 0 0 0

GEFSNGP_con_prob3kmehi_228.txt.gz
EHI
0 0 0 0 0 0 0 0 0 0 2 8 16 28 37 42 48 51 49 47 48 49 49 49 49 48 47 45 41 34 29 27 26 25 22 18 16 17 17 12 7 6 7 8
0 0 0 0 0 0 0 0 0 1 3 7 17 29 38 43 46 48 47 47 49 50 50 49 48 48 46 44 39 33 28 27 27 26 23 20 19 19 16 12 8 6 7 8
0 0 0 0 0 0 1 1 1 3 6 12 22 33 41 45 46 46 47 49 50 51 51 49 48 47 44 40 36 33 30 28 27 26 24 22 22 19 15 12 8 6 6 7
0 0 0 0 0 1 2 2 2 6 12 19 27 35 42 46 49 49 50 50 49 50 52 50 48 45 41 36 33 33 32 30 26 24 24 23 21 18 13 9 7 6 5 5
0 0 0 0 1 3 4 3 4 9 16 23 31 37 41 46 51 51 51 51 50 49 52 51 46 43 39 35 31 31 31 29 24 22 22 21 18 15 10 7 5 4 3 3
0 0 0 1 3 4 4 5 8 13 18 24 32 37 39 45 52 53 53 55 54 53 53 51 46 43 40 33 29 28 29 28 24 21 20 18 16 13 9 6 5 4 4 4
0 0 0 1 4 4 4 7 13 18 21 27 35 40 43 49 54 55 56 58 58 57 54 50 46 45 40 31 26 24 24 24 21 19 16 13 12 10 9 7 6 5 4 3
0 0 1 3 5 6 8 14 22 27 30 34 41 48 51 54 57 57 56 56 57 56 52 47 44 43 37 28 22 19 20 19 17 14 11 8 7 6 6 6 6 5 4 2
4 4 5 7 9 13 18 24 31 36 38 42 47 52 54 55 57 57 56 54 53 52 46 41 40 38 32 24 19 18 18 15 11 8 5 3 3 3 2 2 4 3 2 2
11 12 14 15 16 20 24 29 34 38 40 43 48 51 52 52 53 54 54 52 50 47 42 36 34 31 24 18 16 17 16 12 7 3 1 0 1 1 0 0 1 1 1 1
15 18 21 21 20 23 25 28 33 38 40 42 45 48 49 48 48 48 49 47 45 42 36 32 28 24 18 14 14 15 14 10 5 2 1 0 0 0 0 0 0 0 0 0
14 16 19 20 20 21 22 23 28 35 40 42 43 43 43 42 41 41 41 40 39 35 30 27 25 20 14 12 12 13 12 8 3 1 0 0 0 0 0 0 0 0 0 0
11 13 16 18 18 18 19 20 24 30 37 40 39 37 35 35 34 33 32 32 30 27 22 20 19 16 12 10 10 11 9 6 2 0 0 0 0 0 0 0 0 0 0 0
7 9 12 14 16 18 18 21 24 27 31 33 33 30 27 27 27 25 23 22 20 18 16 13 12 11 9 7 7 8 7 4 2 0 0 0 0 0 0 0 0 0 0 0
5 6 7 9 12 15 17 20 22 22 24 25 24 22 20 19 19 17 15 14 13 13 13 12 10 8 6 6 6 6 6 5 3 1 0 0 0 0 0 0 0 0 0 0
3 4 4 5 7 9 13 16 17 17 17 17 16 15 14 14 13 11 10 9 10 12 11 10 9 8 6 6 6 6 6 5 3 1 0 0 0 0 0 0 0 0 0 0
1 3 3 3 3 5 8 12 14 14 13 12 11 11 11 11 10 10 8 7 7 8 8 7 7 7 6 6 6 5 4 4 3 1 0 0 0 0 0 0 0 0 0 0
2 3 3 3 3 3 5 9 11 11 11 11 10 9 10 10 9 9 7 5 3 4 4 4 4 4 4 4 4 4 3 3 3 2 1 0 0 0 0 0 0 0 0 0
2 3 3 3 2 2 4 6 8 9 10 9 8 8 8 8 7 6 4 2 1 1 1 1 3 3 3 3 3 3 3 3 3 3 2 0 0 0 0 0 0 0 0 0
1 2 3 3 2 2 3 5 7 8 8 7 6 5 5 4 3 2 1 0 0 0 0 1 3 3 2 2 2 3 3 3 3 2 1 0 0 0 0 0 0 0 0 0
0 1 2 2 2 1 2 5 7 7 5 3 3 2 2 1 0 0 0 0 0 0 0 2 3 3 1 0 1 3 3 3 3 1 0 0 0 0 0 0 0 0 0 0
0 0 1 1 1 1 2 4 5 5 2 1 1 1 0 0 0 0 0 0 0 0 0 1 2 2 1 0 1 2 3 3 2 1 0 0 0 0 0 0 0 0 0 0
0 0 0 0 0 1 2 3 3 2 1 0 0 0 0 0 0 0 0 0 0 0 0 0 1 1 0 0 1 1 2 2 1 0 0 0 0 0 0 0 0 0 0 0
0 0 0 0 0 1 2 3 2 1 0 0 0 0 0 0 0 0 0 0 0 0 0 0 0 0 0 0 0 0 1 1 1 0 0 0 0 0 0 0 0 0 0 0
0 0 0 0 0 1 2 3 2 0 0 0 0 0 0 0 0 0 0 0 0 0 0 0 0 0 0 0 0 0 0 0 0 0 0 0 0 0 0 0 0 0 0 0
0 0 0 0 0 0 1 2 2 0 0 0 0 0 0 0 0 0 0 0 0 0 0 0 0 0 0 0 0 0 0 0 0 0 0 0 0 0 0 0 0 0 0 0
0 0 0 0 0 0 1 2 1 0 0 0 0 0 0 0 0 0 0 0 0 0 0 0 0 0 0 0 0 0 0 0 0 0 0 0 0 0 0 0 0 0 0 0

GEFSNGP_con_prob3kmehi_234.txt.gz
EHI
0 0 0 0 0 0 0 0 0 0 0 0 0 1 5 11 17 19 19 24 30 29 25 21 20 22 26 27 27 27 23 15 10 9 10 12 11 8 5 3 3 2 1 0
0 0 0 0 0 0 0 0 0 0 0 0 1 2 5 12 20 22 22 27 33 33 28 24 23 23 24 25 26 28 25 18 14 13 13 12 11 8 6 4 3 1 0 0
0 0 0 0 0 0 0 0 0 0 0 1 2 3 6 13 21 24 25 30 36 37 32 26 23 22 22 23 27 29 27 21 19 19 17 14 11 9 8 5 3 2 1 1
0 0 0 0 0 0 0 0 0 0 1 2 5 7 10 14 20 24 27 31 36 38 34 27 23 21 21 23 26 28 26 23 22 21 19 15 11 10 9 5 3 3 2 3
0 0 0 0 0 0 0 0 0 0 2 5 9 12 14 16 18 22 27 31 35 38 35 29 26 24 22 22 24 26 24 22 21 19 16 14 11 9 7 5 3 4 5 5
0 0 0 0 0 0 0 0 0 2 5 10 11 10 12 16 20 24 28 32 36 39 36 31 30 28 25 23 23 23 22 21 19 16 14 12 11 9 6 5 4 5 6 6
0 0 0 1 1 1 0 0 1 4 8 13 12 8 11 20 26 30 34 35 38 38 35 32 31 29 26 23 20 19 19 19 16 14 12 10 9 8 7 5 5 6 5 5
0 0 0 1 2 1 0 1 3 7 12 15 15 14 17 23 31 37 40 40 39 38 34 30 30 29 25 20 17 16 16 16 14 11 9 7 6 5 4 4 5 6 4 4
0 0 0 1 3 3 2 2 4 9 14 16 18 20 22 25 31 37 41 42 40 37 32 28 27 26 22 17 16 16 15 13 10 7 5 4 3 2 1 2 3 4 3 2
0 0 1 2 4 5 5 5 6 9 12 16 20 24 26 27 30 35 39 40 39 37 32 27 23 21 18 16 16 16 14 10 6 3 1 1 1 0 0 0 1 1 1 1
0 0 1 2 4 6 8 9 9 9 11 16 22 26 28 28 29 33 36 38 39 37 33 27 20 16 14 14 15 15 12 8 4 1 0 0 0 0 0 0 0 0 0 0
0 0 0 1 3 6 9 11 10 9 11 17 20 23 25 25 27 31 35 36 36 33 29 22 16 12 10 12 13 13 10 6 2 1 0 0 0 0 0 0 0 0 0 0
0 0 0 0 3 6 8 10 9 9 12 14 14 15 18 20 22 26 30 30 28 25 21 15 11 8 7 9 10 11 9 4 1 0 0 0 0 0 0 0 0 0 0 0
0 0 0 1 3 6 8 9 10 10 10 9 8 10 14 15 17 21 24 23 22 20 16 11 8 6 5 5 6 8 7 3 0 0 0 0 0 0 0 0 0 0 0 0
0 0 1 3 6 8 9 9 9 10 9 7 6 8 12 13 15 17 18 18 19 17 13 9 6 4 3 3 3 4 4 2 1 0 0 0 0 0 0 0 0 0 0 0
0 0 1 4 6 7 7 6 7 8 8 6 6 7 10 11 11 12 12 13 15 14 10 7 5 2 1 2 2 3 3 2 1 0 0 0 0 0 0 0 0 0 0 0
0 0 1 2 3 3 3 4 5 6 7 6 5 7 9 10 10 9 9 9 10 8 5 4 3 2 2 2 3 3 3 2 1 0 0 0 0 0 0 0 0 0 0 0
0 0 0 1 1 0 1 2 3 3 4 4 5 7 10 11 11 9 7 6 5 3 1 1 1 2 3 3 3 3 3 2 1 0 0 0 0 0 0 0 0 0 0 0
0 0 0 0 0 0 1 2 2 2 2 3 6 9 11 11 10 8 4 3 1 0 0 0 0 1 2 2 2 3 3 3 1 1 0 0 0 0 0 0 0 0 0 0
0 0 0 0 0 0 0 1 2 2 2 3 6 9 10 9 7 4 2 1 0 0 0 0 0 0 1 1 1 1 3 3 3 2 1 0 0 0 0 0 0 0 0 0
0 0 0 0 0 0 0 0 2 3 3 5 7 8 8 6 4 2 0 0 0 0 0 0 0 0 0 0 0 1 2 2 2 2 1 0 0 0 0 0 0 0 0 0
0 0 0 0 0 0 0 1 2 3 4 4 5 5 4 3 2 1 0 0 0 0 0 0 0 0 0 0 0 0 1 1 1 1 0 0 0 0 0 0 0 0 0 0
0 0 0 0 0 0 0 1 2 2 2 2 2 1 1 1 1 0 0 0 0 0 0 0 0 0 0 0 0 0 0 0 0 0 0 0 0 0 0 0 0 0 0 0
0 0 0 0 0 0 0 1 1 1 1 0 0 0 0 0 0 0 0 0 0 0 0 0 0 0 0 0 0 0 0 0 0 0 0 0 0 0 0 0 0 0 0 0
0 0 0 0 0 0 0 0 0 0 0 0 0 0 0 0 0 0 0 0 0 0 0 0 0 0 0 0 0 0 0 0 0 0 0 0 0 0 0 0 0 0 0 0
0 0 0 0 0 0 0 0 0 0 0 0 0 0 0 0 0 0 0 0 0 0 0 0 0 0 0 0 0 0 0 0 0 0 0 0 0 0 0 0 0 0 0 0
0 0 0 0 0 0 0 0 0 0 0 0 0 0 0 0 0 0 0 0 0 0 0 0 0 0 0 0 0 0 0 0 0 0 0 0 0 0 0 0 0 0 0 0

GEFSNGP_con_prob3kmehi_240.txt.gz
EHI
0 0 0 0 0 0 0 0 0 0 0 2 7 13 18 24 26 26 24 26 36 46 48 50 53 55 51 44 40 40 39 39 37 33 30 28 24 20 18 18 18 16 14 13
0 0 0 0 0 0 0 0 0 0 0 2 7 13 18 25 28 27 25 27 36 47 51 52 53 54 52 47 43 42 41 39 37 34 31 28 26 22 19 18 17 14 14 14
0 0 0 0 0 0 0 0 0 0 1 3 7 11 16 23 28 28 27 28 35 46 51 52 52 52 52 49 46 44 41 38 36 34 31 28 26 23 20 19 16 15 15 16
0 0 0 0 0 0 0 0 0 0 1 3 7 10 14 20 26 29 30 30 34 43 49 49 49 51 51 50 48 44 42 39 35 32 29 27 25 22 20 18 17 16 17 17
0 0 0 0 0 0 0 0 1 2 3 5 8 9 13 19 26 32 34 33 36 42 48 50 51 53 55 54 51 47 44 40 36 33 29 27 26 22 19 18 16 16 16 15
0 0 0 0 0 0 0 0 1 2 6 10 11 11 15 24 32 38 39 37 37 42 48 52 55 58 59 58 54 51 46 42 38 35 31 28 27 24 21 20 17 13 12 11
0 0 0 0 0 0 0 1 2 4 7 12 15 16 22 31 38 41 43 41 40 42 47 52 56 59 60 57 55 51 46 42 40 37 32 28 27 25 24 21 15 10 7 7
0 0 1 2 1 1 2 4 5 7 9 12 16 22 28 36 41 43 45 44 42 43 46 50 53 56 56 55 53 51 46 42 39 37 32 27 25 24 23 19 12 7 5 6
0 0 1 2 3 4 5 9 13 15 15 15 18 23 30 37 42 42 42 43 42 43 47 50 51 51 52 53 52 50 46 40 37 35 32 26 22 21 19 14 9 6 5 6
0 0 1 2 4 5 8 14 20 22 20 19 20 23 29 35 37 36 36 38 40 43 47 49 49 48 48 50 50 47 43 38 34 33 30 25 20 17 13 10 7 6 6 6
2 3 4 6 8 9 12 17 23 24 23 22 22 23 27 30 29 28 31 35 38 40 43 45 44 44 44 44 45 43 39 35 32 30 27 23 16 11 7 5 4 4 4 4
6 9 11 13 15 15 16 19 23 26 26 24 23 24 24 23 22 24 28 32 35 36 37 37 37 37 38 39 40 40 36 31 27 25 23 19 12 6 3 2 1 1 1 1
12 13 15 17 17 17 19 21 24 26 26 23 23 23 20 16 16 19 23 28 30 30 32 32 31 31 32 34 36 36 32 27 22 19 17 14 8 4 1 0 0 0 0 0
15 16 17 17 17 17 19 21 24 24 22 20 21 20 15 11 13 15 19 23 26 27 29 28 28 27 28 29 31 30 27 23 20 15 11 8 5 3 1 0 0 0 0 0
16 18 20 19 18 18 18 18 20 20 17 16 18 17 12 10 13 16 19 22 24 25 26 24 23 24 26 26 26 25 23 19 15 11 7 4 3 2 1 1 0 0 0 0
16 17 19 20 20 19 16 14 15 14 12 13 17 17 12 11 14 19 22 22 22 22 22 20 18 20 21 20 19 18 16 12 8 6 3 2 2 2 2 1 0 0 0 0
12 13 16 18 20 18 14 12 11 10 9 11 16 17 13 12 14 19 21 21 20 19 18 17 15 15 15 13 12 11 10 5 3 3 2 1 2 2 1 1 0 0 0 0
7 10 13 14 15 14 12 11 9 8 7 9 14 15 13 12 13 15 18 19 18 17 16 15 13 12 11 10 9 9 7 4 2 2 2 2 1 1 0 0 0 0 0 0
7 9 11 11 10 10 11 11 11 9 8 8 10 11 10 10 10 11 13 14 13 12 13 12 10 9 9 7 7 7 6 4 2 1 1 1 0 0 0 0 0 0 0 0
8 9 9 9 8 8 10 11 12 10 8 6 6 6 6 7 7 8 10 10 8 7 7 8 7 7 7 5 4 4 4 3 2 0 0 1 1 1 0 0 0 0 0 0
8 8 8 8 8 8 9 11 10 8 6 3 2 2 3 4 5 7 8 7 5 4 4 4 6 6 5 4 3 3 3 2 1 0 1 2 2 2 1 0 0 0 0 0
7 8 8 8 8 8 8 8 7 6 4 1 1 2 3 3 5 6 7 6 3 2 2 2 3 2 2 2 2 2 1 1 1 1 2 3 3 3 1 0 0 0 0 0
7 7 7 7 7 6 5 5 6 7 5 3 2 3 3 3 3 3 3 2 1 1 1 1 1 0 0 1 1 1 0 0 1 2 3 3 2 2 2 1 0 0 0 0
6 6 7 7 7 5 3 3 6 7 7 5 3 3 2 2 1 1 2 1 0 0 1 0 0 0 0 1 0 0 0 0 1 2 2 1 1 1 2 1 1 0 0 0
7 7 7 7 5 4 3 4 5 6 6 4 2 1 1 1 0 1 2 2 1 0 0 0 0 0 0 0 0 0 0 0 0 1 1 0 0 0 1 2 1 0 0 0
7 7 6 5 3 2 3 4 4 3 3 1 1 0 0 0 0 0 1 2 2 1 1 1 0 0 0 0 0 0 0 0 0 0 0 0 0 1 2 3 2 0 0 0
7 7 6 3 2 2 2 3 3 2 1 0 0 0 0 0 0 0 0 1 2 1 2 2 1 0 0 0 0 0 0 0 0 0 0 0 0 1 2 3 2 1 0 0

GEFSNGP_con_prob3kmehi_246.txt.gz
EHI
0 0 0 0 0 0 0 0 0 1 3 6 11 19 26 30 32 33 34 40 50 60 65 66 66 67 66 61 55 54 58 59 56 52 46 40 35 33 31 28 27 27 26 25
0 0 0 0 0 0 0 0 0 2 4 5 9 20 28 32 35 36 37 42 51 60 65 67 68 69 67 62 58 56 57 56 53 49 44 39 36 34 32 30 29 28 26 24
0 0 0 0 0 0 0 1 1 3 4 5 11 23 33 38 41 43 44 48 56 63 67 68 70 70 68 64 60 58 56 53 49 46 43 39 37 36 34 32 31 30 27 25
0 0 0 0 0 0 1 2 3 4 6 8 14 23 33 39 45 48 51 54 59 66 68 68 70 71 68 64 61 57 53 50 49 47 45 43 41 39 36 33 31 31 29 28
0 0 0 0 0 1 1 2 4 6 8 11 14 18 25 34 42 48 55 58 59 63 67 67 68 69 67 64 62 58 53 51 52 51 50 47 44 41 38 35 32 31 30 30
0 0 0 0 0 1 2 2 4 7 10 14 15 17 22 31 39 48 57 60 59 60 63 65 66 66 65 64 62 61 58 56 56 55 52 49 45 42 39 36 33 30 29 29
0 0 0 1 2 4 8 8 8 11 14 18 20 21 27 35 42 51 58 60 59 59 62 65 67 65 63 62 63 64 62 60 58 55 50 47 44 42 39 36 33 31 29 28
0 0 2 5 7 12 18 18 15 17 20 23 24 26 30 36 43 51 55 57 58 59 62 66 66 65 63 62 64 65 63 60 57 54 48 45 43 41 38 36 34 31 28 25
1 2 5 9 13 17 20 17 15 19 24 25 26 28 30 33 40 46 50 54 56 57 61 64 64 63 62 64 67 65 61 57 54 52 49 45 42 39 36 34 32 29 25 22
3 4 6 10 13 14 12 11 12 17 23 26 28 32 35 37 40 43 45 47 49 53 58 60 61 60 61 63 65 64 59 53 49 48 46 43 39 35 33 30 28 26 22 19
7 7 8 9 10 7 7 10 13 16 22 27 31 38 41 41 41 41 40 39 41 46 52 55 57 59 59 60 60 60 55 47 44 42 40 36 31 27 25 22 20 20 18 17
10 10 10 10 8 6 7 12 16 19 24 30 35 40 41 40 39 36 35 36 37 41 46 50 53 54 54 53 53 52 49 43 39 36 33 30 25 20 15 11 9 8 9 10
12 11 12 11 10 10 12 15 19 23 27 31 35 37 37 37 34 32 31 33 34 38 43 47 48 46 44 43 44 46 44 41 37 33 30 27 24 18 13 7 3 2 2 3
14 13 15 16 16 17 18 19 22 26 29 32 32 33 33 32 30 28 28 29 30 35 40 42 41 39 37 36 38 40 39 37 34 31 28 26 23 18 13 9 6 3 1 1
14 16 19 21 23 24 23 21 23 25 27 29 29 29 29 28 27 26 26 26 28 32 37 38 36 35 34 33 34 35 34 32 30 28 26 23 19 14 11 8 7 6 3 1
14 16 18 20 23 25 26 24 22 22 23 25 24 24 26 25 25 26 26 27 28 30 33 35 33 32 32 33 33 33 30 26 24 22 20 16 12 10 8 7 7 6 3 1
16 16 15 16 18 22 23 23 20 19 21 22 22 23 25 24 24 25 26 26 26 25 26 28 29 29 30 31 31 31 26 21 17 15 13 10 8 7 6 6 6 6 3 2
15 15 14 15 17 19 19 18 18 20 22 24 24 25 26 25 23 22 23 23 22 20 19 21 24 27 26 25 24 24 21 16 12 11 8 7 6 5 5 5 6 5 4 3
10 12 14 15 17 18 17 16 18 21 24 25 25 25 25 25 23 21 19 18 18 17 18 18 20 22 22 17 15 16 14 11 9 8 6 6 6 5 5 5 5 4 3 3
8 10 13 14 16 17 18 18 18 21 24 25 25 25 24 22 20 18 16 14 15 17 18 16 15 17 16 12 10 11 10 7 5 5 4 4 5 5 5 5 4 3 3 3
10 10 11 12 13 16 18 18 18 19 22 23 22 21 20 16 14 13 12 11 12 14 14 12 11 12 12 9 8 9 8 5 4 3 2 3 3 3 3 3 3 3 3 3
11 10 10 10 12 14 16 17 17 18 19 18 17 16 15 12 10 10 9 8 7 7 7 8 8 7 7 6 6 7 7 5 3 1 2 2 2 2 2 2 3 3 3 3
10 10 11 12 12 13 14 15 16 16 15 14 14 15 13 11 9 7 5 4 3 2 3 5 5 4 4 4 5 5 5 4 2 0 1 2 2 2 2 3 3 3 3 3
10 11 12 12 11 11 12 14 14 13 13 14 15 16 14 11 8 4 2 1 1 0 1 2 2 2 3 5 6 5 4 3 1 0 0 1 1 2 2 2 2 2 3 3
11 11 11 11 10 9 10 10 10 10 12 13 13 13 11 9 7 4 1 0 0 0 0 1 1 1 3 5 5 4 3 1 0 0 0 0 0 1 1 1 1 1 1 2
10 9 9 9 8 7 7 7 8 8 9 10 10 9 8 7 6 4 2 0 0 0 0 0 0 1 2 3 2 1 1 0 0 0 0 0 0 0 0 0 0 0 1 2
9 9 9 8 6 5 5 6 7 7 7 8 8 7 6 6 6 5 2 0 0 0 0 0 0 0 1 1 0 0 0 0 0 0 0 0 0 0 0 0 0 0 0 1

GEFSNGP_con_prob3kmehi_252.txt.gz
EHI
0 0 0 0 0 0 0 0 0 1 2 3 9 16 18 16 15 16 19 22 25 26 26 26 30 35 41 44 45 47 46 43 38 33 27 21 16 13 12 12 13 12 10 8
0 0 0 0 0 0 0 0 0 1 3 6 13 20 21 19 18 20 23 26 27 28 28 29 32 36 40 41 42 44 46 44 40 34 28 22 18 16 16 16 15 13 10 8
0 0 0 0 0 0 0 1 1 1 5 10 18 24 23 22 22 22 26 29 30 30 31 30 33 37 39 38 38 41 43 44 41 35 29 25 22 20 19 19 18 15 10 8
0 0 0 0 0 0 1 2 2 3 8 14 20 22 21 20 21 23 25 27 27 30 32 31 33 36 39 38 37 39 41 42 40 35 30 27 25 22 21 21 20 15 11 9
0 0 0 0 0 1 1 2 4 7 12 16 19 20 17 17 21 24 26 25 25 29 33 33 33 36 38 38 37 39 40 41 38 34 30 28 27 24 22 22 20 16 13 12
0 0 0 0 0 0 1 2 4 8 12 16 19 17 14 17 21 25 27 27 27 30 33 33 33 34 35 35 36 38 39 39 36 33 31 31 29 26 24 23 20 17 15 14
0 0 0 0 0 0 0 1 3 7 12 16 17 14 15 21 23 23 26 29 30 31 31 31 32 33 33 33 34 35 36 35 32 31 31 31 31 29 27 25 21 17 15 13
0 0 0 0 0 0 0 1 3 7 12 17 18 18 21 26 27 23 25 30 32 31 31 32 34 35 34 34 34 32 32 31 29 28 29 29 30 30 29 27 23 18 14 12
0 0 0 0 0 0 1 3 5 9 14 19 22 23 24 27 27 24 25 28 31 31 32 34 36 36 34 33 34 32 30 29 28 27 27 27 29 29 29 28 25 20 15 12
1 1 1 1 1 1 2 5 9 11 14 18 20 21 22 23 24 23 23 25 27 29 31 32 32 32 31 30 31 30 29 28 28 27 25 24 25 25 25 25 24 20 15 12
1 2 2 2 3 4 5 8 12 15 16 17 17 18 19 19 19 20 23 24 24 26 27 27 26 26 27 26 26 27 27 28 28 26 22 20 19 17 16 17 16 14 11 10
0 1 2 3 4 6 8 11 15 18 19 18 17 18 19 18 18 20 23 24 23 23 24 23 22 22 23 24 23 24 27 28 26 24 20 17 13 9 8 8 7 5 5 5
0 1 2 3 5 7 11 13 15 18 20 20 18 19 20 21 20 21 23 22 21 21 21 21 20 20 20 22 22 23 25 26 24 21 17 14 10 7 4 3 2 1 1 1
1 2 3 5 7 9 11 13 14 16 19 19 19 20 22 23 22 21 21 20 19 19 19 18 17 17 18 19 20 20 22 23 21 17 14 10 7 5 4 3 3 3 1 0
2 3 5 7 8 9 10 11 13 16 18 18 18 20 21 22 22 20 19 18 17 17 16 15 13 13 15 17 17 17 19 20 18 15 12 8 5 4 3 3 3 3 2 1
4 5 6 7 7 8 9 11 13 15 16 15 16 18 19 20 20 18 16 16 15 14 13 10 8 9 11 14 15 16 16 16 14 12 9 8 6 4 3 3 3 3 3 1
4 4 5 5 6 7 8 11 14 14 13 12 14 16 17 18 18 16 14 13 13 11 9 7 5 5 6 9 14 17 16 12 9 8 8 7 6 4 3 3 3 3 3 1
2 3 3 4 6 8 9 10 12 13 11 11 12 13 13 14 15 13 10 10 10 9 6 4 3 2 3 6 12 18 16 11 8 7 5 5 4 3 2 3 3 3 3 1
1 3 4 5 7 9 9 9 10 11 11 10 10 9 8 9 9 8 7 7 7 6 4 2 1 1 2 5 10 13 13 10 8 6 3 2 2 1 1 2 2 4 4 2
2 4 6 7 8 9 8 8 9 9 9 8 8 6 5 5 6 5 5 5 4 4 3 2 1 1 3 5 6 7 7 7 6 4 2 1 0 0 1 2 2 4 5 3
2 5 8 9 10 9 8 8 9 8 8 7 6 4 4 4 4 4 4 3 2 1 2 1 2 3 5 5 4 3 3 3 4 2 1 1 0 0 1 2 3 4 4 3
1 4 8 10 10 9 8 8 9 9 9 7 5 3 3 3 3 3 3 4 3 1 0 0 1 3 4 4 3 2 1 1 3 3 1 0 0 0 0 1 2 3 2 2
2 4 7 8 9 8 9 9 10 9 9 7 4 3 3 3 4 4 4 4 3 1 0 0 0 1 2 2 3 3 2 1 2 2 2 1 0 0 0 0 1 1 0 1
4 4 6 7 7 8 9 8 8 8 7 5 4 3 4 4 5 5 5 4 2 0 0 0 0 0 0 1 2 2 1 0 1 1 1 1 0 0 0 0 0 0 0 0
5 5 5 5 5 6 7 6 5 5 5 4 3 4 4 5 5 5 4 2 1 0 0 0 0 0 0 0 1 1 0 0 0 0 0 0 0 0 0 0 0 0 0 0
4 4 3 2 2 3 4 4 3 3 3 3 3 3 4 4 4 4 2 1 0 0 0 0 0 0 0 0 0 0 0 0 0 0 0 0 0 0 0 0 0 0 0 0
2 2 1 1 0 1 2 2 2 3 3 3 3 3 3 3 3 3 1 0 0 0 0 0 0 0 0 0 0 0 0 0 0 0 0 0 0 0 0 0 0 0 0 0

GEFSNGP_con_prob3kmehi_258.txt.gz
EHI
0 0 0 0 0 0 0 0 0 0 0 0 1 2 2 1 2 6 11 15 14 11 11 12 12 10 8 8 13 20 24 21 16 12 10 11 10 6 4 3 4 4 4 4
0 0 0 0 0 0 0 0 0 0 0 0 1 2 3 2 4 8 10 12 12 12 12 13 13 10 8 9 14 22 25 23 19 15 13 13 12 9 7 6 5 6 5 5
0 0 0 0 0 0 0 0 0 0 0 0 1 2 3 3 6 8 9 9 10 12 14 14 12 9 8 10 14 20 24 24 22 19 16 15 14 12 10 8 7 7 6 5
0 0 0 0 0 0 0 0 0 0 0 1 1 3 3 4 5 7 7 8 8 10 13 13 10 8 8 11 14 18 20 21 22 21 19 17 15 14 12 10 9 8 7 6
0 0 0 0 0 0 0 0 0 0 1 2 3 4 3 3 4 6 7 7 7 8 10 12 10 9 10 13 16 19 20 20 20 20 20 19 18 16 14 12 10 9 8 7
0 0 0 0 0 0 0 0 0 1 2 3 4 4 3 3 4 5 6 6 6 8 10 13 15 15 15 16 17 19 21 21 21 20 20 20 20 19 16 14 13 12 9 7
0 0 0 0 0 0 0 0 0 1 2 3 4 4 4 4 4 5 6 5 7 9 12 16 20 20 18 17 18 18 19 21 21 20 17 18 19 19 18 18 18 16 12 9
0 0 0 0 0 0 0 0 0 1 3 4 4 5 4 4 5 7 8 8 9 10 12 16 20 20 19 18 17 17 17 18 18 17 15 15 17 18 18 20 22 20 15 12
0 0 0 0 0 0 0 0 1 2 4 5 6 5 4 4 7 11 12 12 13 13 14 16 18 18 18 17 17 17 17 16 15 15 14 15 17 19 20 22 24 21 17 15
0 0 0 0 1 1 1 1 2 4 5 6 5 5 5 6 9 12 13 14 14 15 15 15 16 16 17 17 17 17 17 15 15 14 13 14 16 18 20 22 23 22 19 16
0 0 0 1 2 2 3 3 3 4 5 5 5 6 7 8 10 12 12 12 13 14 15 16 15 15 17 17 17 17 15 14 14 14 12 11 11 13 15 17 18 18 16 12
0 0 0 1 2 4 6 5 3 5 6 6 6 6 7 8 10 11 11 11 12 14 14 15 15 15 16 17 18 18 15 14 15 14 11 8 7 7 8 8 8 8 7 6
0 1 1 2 3 5 6 5 4 6 8 7 7 7 7 8 10 11 11 10 11 12 12 13 14 15 16 18 19 19 18 17 17 17 13 8 7 7 6 4 2 1 1 1
1 2 2 2 3 5 6 6 5 6 8 8 7 7 8 9 11 11 10 9 9 10 10 11 13 15 17 19 19 19 19 18 18 18 15 11 9 9 9 6 3 1 0 1
3 3 2 2 3 5 6 6 6 6 7 8 8 8 9 10 11 10 8 7 7 7 8 10 11 13 15 18 19 19 18 15 15 15 14 11 10 10 10 7 3 1 0 1
2 2 2 2 4 6 7 7 7 7 7 7 8 9 10 10 9 7 6 6 6 7 7 8 9 10 11 13 14 15 13 10 10 10 10 9 9 9 8 6 3 1 0 1
1 1 1 2 5 6 7 8 9 8 7 6 7 9 10 9 7 5 4 5 6 6 6 6 7 7 7 8 9 9 7 5 6 7 8 8 8 7 6 4 2 1 0 0
0 0 0 1 4 6 8 9 9 8 7 6 7 8 9 8 6 5 4 5 6 7 6 6 6 5 4 5 5 5 4 4 4 4 5 6 7 7 5 2 1 0 0 0
0 0 1 1 3 4 6 8 8 7 6 6 6 6 6 5 5 5 5 5 6 6 5 4 4 3 3 3 4 4 4 4 4 3 3 4 6 5 3 1 0 0 0 0
0 0 1 2 3 3 4 5 6 6 6 5 4 4 4 4 4 4 5 5 4 4 3 1 1 2 3 4 3 4 4 4 3 3 3 3 3 3 2 1 0 0 0 0
0 0 1 3 3 3 3 2 4 4 3 2 2 3 3 3 3 3 4 4 3 1 1 0 0 1 2 3 3 3 3 3 2 2 1 1 1 1 1 0 0 0 0 0
0 0 1 2 3 3 3 2 1 1 1 0 0 1 2 3 3 3 3 3 2 1 0 0 0 0 1 1 1 1 1 1 1 1 0 0 0 0 0 0 0 0 0 0
0 0 0 1 2 2 2 1 0 0 0 0 0 0 1 2 3 3 3 3 2 1 0 0 0 0 0 0 0 0 0 0 0 0 0 0 0 0 0 0 0 0 0 0
0 0 0 0 1 1 1 1 0 0 0 0 0 0 0 1 3 3 3 2 2 1 1 0 0 0 0 0 0 0 0 0 0 0 0 0 0 0 0 0 0 0 0 0
0 0 1 0 0 0 0 0 0 0 1 1 1 1 1 1 3 3 3 2 1 0 0 0 0 0 0 0 0 0 0 0 0 0 0 0 0 0 0 0 0 0 0 0
0 0 0 0 0 0 0 0 0 0 1 2 2 2 2 2 2 3 3 1 0 0 0 0 0 0 0 0 0 0 0 0 0 0 0 0 0 0 0 0 0 0 0 0
0 0 0 0 0 0 0 0 0 0 1 1 1 1 1 1 2 3 2 1 0 0 0 0 0 0 0 0 0 0 0 0 0 0 0 0 0 0 0 0 0 0 0 0

GEFSNGP_con_prob3kmehi_264.txt.gz
EHI
0 0 0 0 1 2 2 1 0 0 1 3 5 7 9 9 13 21 26 29 33 35 35 34 31 27 22 19 20 25 26 26 26 27 28 24 18 13 13 13 13 14 14 14
0 0 0 0 0 1 1 0 0 0 1 3 5 8 9 10 15 21 26 28 33 36 36 33 30 28 25 24 25 27 28 30 30 30 29 26 20 17 16 16 15 16 15 14
0 0 0 0 0 0 0 0 0 0 0 1 3 7 9 11 14 19 23 26 30 35 36 32 29 27 28 29 29 29 30 33 33 32 32 30 28 25 23 22 22 22 20 17
0 0 0 0 0 0 0 0 0 0 0 0 1 4 7 9 12 15 18 21 25 30 32 31 28 27 29 30 29 27 28 31 32 32 33 35 36 34 31 30 29 28 25 22
0 0 0 0 0 0 0 0 0 0 1 1 1 2 5 8 12 14 15 17 20 23 26 29 28 27 28 28 27 24 25 28 30 31 33 35 36 35 34 33 32 29 26 25
0 0 0 0 0 0 0 0 0 1 2 2 2 2 4 9 13 16 16 17 19 21 24 28 28 27 28 28 26 23 22 25 28 29 29 30 31 30 30 31 29 26 25 27
0 0 0 0 0 0 1 2 2 1 2 3 3 4 6 9 13 16 17 17 19 22 24 26 27 27 28 28 27 25 23 23 24 23 22 24 25 25 26 26 25 24 25 27
0 0 0 0 0 0 2 4 4 3 3 5 7 7 7 9 12 14 15 15 18 21 23 23 23 24 27 28 27 25 24 22 21 20 18 19 20 22 22 22 23 23 24 25
0 0 0 0 1 2 4 4 4 4 6 8 9 8 7 8 11 14 15 16 18 20 22 21 19 19 24 26 26 25 25 24 21 19 18 18 18 18 18 19 21 22 22 23
1 1 1 1 2 4 5 5 5 7 10 11 10 8 8 10 14 17 19 21 22 23 22 20 17 17 21 24 25 25 26 25 22 20 19 18 17 16 16 17 18 20 20 21
2 2 2 3 5 5 6 7 9 11 12 11 10 9 10 13 18 21 23 25 27 26 24 21 18 18 21 24 25 25 25 24 22 19 17 17 16 15 13 13 13 14 15 15
3 3 3 4 5 6 6 7 8 9 10 9 10 9 11 14 18 20 23 26 29 29 28 25 23 22 23 25 26 25 24 22 19 17 17 16 15 13 10 6 5 5 6 7
4 3 3 4 4 4 5 5 5 6 7 7 8 9 11 13 16 19 22 25 29 30 29 28 26 25 25 26 26 24 22 19 17 17 17 18 16 13 9 5 2 1 1 1
4 3 3 4 4 5 5 5 5 6 6 6 6 7 10 12 15 19 23 25 27 29 29 28 27 25 24 24 24 22 19 18 17 18 19 19 18 15 11 8 6 4 2 1
5 4 5 5 5 7 8 7 6 6 6 6 6 7 9 11 14 18 21 24 26 28 28 28 25 23 21 20 19 19 19 18 18 19 18 18 17 15 11 9 9 8 6 4
5 5 5 6 6 8 8 7 6 6 6 7 8 9 11 12 13 15 18 21 24 26 26 26 24 21 18 15 16 18 19 18 17 18 18 16 15 13 10 9 10 11 10 7
4 4 4 4 5 7 8 7 7 7 8 9 9 10 11 11 12 13 15 18 20 22 23 22 21 20 17 15 15 17 17 15 14 16 17 15 13 11 9 9 9 10 9 7
3 3 3 3 4 5 6 6 7 8 9 10 9 8 8 9 11 12 12 13 14 16 18 17 17 17 16 15 15 16 15 14 13 13 13 12 10 8 7 6 7 7 6 4
1 2 2 3 3 4 5 6 7 7 8 8 8 7 7 8 9 9 9 9 10 11 13 13 12 14 15 14 13 13 12 11 10 9 8 8 7 6 5 4 4 4 3 2
0 1 1 2 3 5 6 7 7 6 6 7 7 8 9 10 9 8 8 9 10 10 10 10 10 12 12 11 10 9 9 8 8 7 6 6 6 5 4 3 3 2 2 1
0 1 1 2 4 6 8 8 7 7 7 8 9 9 9 9 9 9 9 10 9 8 8 8 9 10 9 7 7 7 7 6 6 6 6 6 5 5 4 3 2 1 0 0
0 1 3 3 4 6 7 8 8 8 9 9 9 8 7 7 8 9 8 7 6 4 5 6 6 6 6 5 5 6 6 6 6 6 5 4 3 2 2 2 1 0 0 0
1 2 4 4 4 4 5 6 8 9 9 9 7 6 5 5 6 5 4 3 1 1 2 3 3 3 4 4 4 5 6 6 5 4 2 1 1 1 1 1 0 0 0 0
0 1 3 4 3 3 3 4 5 6 7 7 6 5 5 5 4 2 1 0 0 0 0 1 1 1 2 3 3 3 4 4 3 2 0 0 0 0 0 0 0 0 0 0
0 0 1 3 3 3 3 3 3 4 5 5 5 5 5 5 4 2 1 0 0 0 0 0 0 0 1 1 1 1 1 1 1 0 0 0 0 0 0 0 0 1 1 1
0 0 1 2 3 3 3 2 2 3 4 5 6 6 6 5 3 2 1 1 1 1 1 0 0 0 0 0 0 0 0 0 0 0 0 0 0 1 1 0 0 1 2 2
0 0 1 2 3 3 2 1 2 3 5 6 6 6 6 4 2 1 1 2 2 2 2 1 0 0 0 0 0 0 1 1 1 0 0 0 1 2 2 1 0 0 1 1